Regional Weather Roundup
Issued by NWS Cleveland, OH

Home | Current Version | Previous Version | Graphics & Text | Print | Product List | Glossary On
Versions: 1 2 3 4 5 6 7 8 9 10 11 12 13 14 15 16 17 18 19 20 21 22 23 24 25 26 27 28 29 30 31 32 33 34 35 36 37 38 39 40 41 42 43 44 45 46 47 48 49 50
724
ASUS41 KCLE 220602
RWRCLE
OHIO REGIONAL WEATHER ROUNDUP
NATIONAL WEATHER SERVICE CLEVELAND, OH
200 AM EDT SUN OCT 22 2017

NOTE: "FAIR" INDICATES FEW OR NO CLOUDS BELOW 12,000 FEET WITH NO
SIGNIFICANT WEATHER AND/OR OBSTRUCTIONS TO VISIBILITY.

OHZ001>008-015>018-024>027-034-035-043-044-220700-
   NORTHWEST OHIO

CITY           SKY/WX    TMP DP  RH WIND       PRES   REMARKS
DEFIANCE       CLEAR     58  46  64 S5        30.16R
FINDLAY        CLEAR     57  47  69 SE8       30.17R
TOLEDO EXPRESS CLEAR     56  48  74 CALM      30.16R
TOLEDO EXEC    CLOUDY    57  46  66 S5        30.18R
LIMA           CLEAR     57  49  74 S7        30.18R
$$

OHZ009>014-019>023-028>033-038-089-220700-
   NORTHEAST OHIO

CITY           SKY/WX    TMP DP  RH WIND       PRES   REMARKS
CLE-HOPKINS    PTCLDY    60  52  74 S3        30.22R
CLE-LAKEFRONT  MOCLDY    61  50  67 SE8       30.19S
CUY CO. ARPT   NOT AVBL
LORAIN-ELYRIA  CLEAR     55  47  74 S7        30.21R
ASHTABULA      PTCLDY    56  51  84 S8        30.24S
AKRON-CANTON   PTCLDY    57  50  77 S7        30.23F
WOOSTER        MOCLDY    47  45  93 CALM      30.22S
MANSFIELD      CLOUDY    59  50  72 S9        30.21S
YOUNGSTOWN     PTCLDY    59  50  72 S7        30.24S
$$

OHZ042-051>053-060>062-070>072-077>081-220700-
  SOUTHWEST OHIO

CITY           SKY/WX    TMP DP  RH WIND       PRES   REMARKS
CINC-COVINGTON PTCLDY    57  49  74 S8        30.18F
CINC-LUNKEN    FOG       49  49 100 CALM      30.20S VSB 1
HAMILTON       CLEAR     53  49  86 E5        30.19F
DAYTON         CLEAR     54  50  86 SE7       30.20S
WRIGHT-PAT AFB CLEAR     56  51  84 CALM      30.19S
DAYTON GENERAL CLEAR     58  47  66 S7        30.18F
WILMINGTON     PTCLDY    55  50  83 CALM      30.20S
$$

OHZ036-037-039>041-045>050-054>059-063>069-073>076-082>088-220700-
  CENTRAL AND SOUTHEAST OHIO

CITY           SKY/WX    TMP DP  RH WIND       PRES   REMARKS
COLUMBUS       MOCLDY    61  51  70 SE5       30.20S
OSU AIRPORT    PTCLDY    57  51  80 CALM      30.20S
BOLTON FIELD   MOCLDY    53  50  90 S3        30.21S
RICKENBACK AFB MOCLDY    54  51  89 SE5       30.20S
NEWARK         PTCLDY    51  48  89 CALM      30.21F
MARION         CLEAR     56  48  74 S8        30.20S
LANCASTER      PTCLDY    51  50  96 S3        30.21F
ZANESVILLE     PTCLDY    54  51  90 S3        30.22F
NEW PHILLY     NOT AVBL
$$




USA.gov is the U.S. government's official web portal to all federal, state and local government web resources and services.